Regional Weather Roundup
Issued by NWS Burlington, VT

Current Version | Previous Version | Text Only | Print | Product List | Glossary On
Versions: 1 2 3 4 5 6 7 8 9 10 11 12 13 14 15 16 17 18 19 20 21 22 23 24 25 26 27 28 29 30 31 32 33 34 35 36 37 38 39 40 41 42 43 44 45 46 47 48 49 50
000
ASUS41 KBTV 291010
RWRBTV
VERMONT REGIONAL WEATHER ROUNDUP
NATIONAL WEATHER SERVICE BURLINGTON VT
600 AM EDT SUN MAR 29 2015

NOTE: "FAIR" INDICATES FEW OR NO CLOUDS BELOW 12,000 FEET WITH NO
SIGNIFICANT WEATHER AND/OR OBSTRUCTIONS TO VISIBILITY.

* THESE REPORTS ARE NOT UNDER NWS QUALITY CONTROL AND/OR DO NOT
  REPORT WEATHER SUCH AS PRECIPITATION AND FOG.

VTZ001>019-291100-
_____VERMONT_____


CITY           SKY/WX    TMP DP  RH WIND       PRES   REMARKS
BURLINGTON     SUNNY     14   8  77 CALM      30.17R
MONTPELIER     SUNNY     11   2  67 CALM      30.13R
MORRISVILLE    SUNNY      6   2  83 CALM      30.15R
ST. JOHNSBURY*   N/A     10   5  80 MISG      30.12R
LYNDONVILLE*     N/A      7   1  74 CALM      30.10R
MIDDLEBURY*      N/A     13   8  80 CALM      30.15S
RUTLAND*       SUNNY     10   7  85 SE8       30.14R
SPRINGFIELD    SUNNY     16   7  67 CALM      30.14R
HIGHGATE*        N/A     12   9  87 CALM      30.17R
NEWPORT*         N/A      6   3  86 CALM      30.11R
BENNINGTON     SUNNY     10   4  76 CALM      30.15R

_____LAKE CHAMPLAIN_____


CITY           SKY/WX    TMP DP  RH WIND       PRES   REMARKS

$$

NYZ007-026>031-035-052-083-291100-
_____NORTHERN NEW YORK_____


CITY           SKY/WX    TMP DP  RH WIND       PRES   REMARKS
PLATTSBURGH    SUNNY     15   5  64 CALM      30.17R
SARANAC LAKE   SUNNY     -9 -14  78 CALM      30.08R
MASSENA        SUNNY     13   5  70 SW6       30.21R
OGDENSBURG*    SUNNY     12  10  92 S5        30.20R
POTSDAM*       SUNNY     14   7  73 SW6       30.19R
WATERTOWN      SUNNY     15   8  73 S3        30.22R
FT DRUM        SUNNY     16   6  64 W6        30.18R
ALBANY         SUNNY     13   5  70 CALM      30.21R
GLENS FALLS      N/A     15   7  70 VRB3      30.19R

$$
NHZ002-005-011-291100-
_____NEW HAMPSHIRE_____


CITY           SKY/WX    TMP DP  RH WIND       PRES   REMARKS
LEBANON        SUNNY     15   7  70 CALM      30.13R
KEENE          SUNNY     14   9  79 SW3       30.13R
MT WASHINGTON  SUNNY     -2 -11  65 NW39        N/A  WCI -32
PLYMOUTH         N/A     22   8  56 W9        30.10R
WHITEFIELD     SUNNY      6   1  80 CALM      30.08R

$$

_____REGIONAL QUEBEC LOCATIONS_____


CITY           SKY/WX    TMP DP  RH WIND       PRES   REMARKS
MONTREAL       SUNNY     14   3  62 SW7       30.17R
QUEBEC CITY    SUNNY     14  -4  44 NW6       30.08R
SHERBROOKE     SUNNY      3   1  92 VRB2      30.09R

_____REGIONAL ONTARIO LOCATIONS_____


CITY           SKY/WX    TMP DP  RH WIND       PRES   REMARKS
OTTAWA         SUNNY     14   0  52 W7        30.17R

______KEY______
VSB  - VISIBILITY IN MILES
WCI  - WIND CHILL INDEX
HX   - HEAT INDEX
$$
NNNN



USA.gov is the U.S. government's official web portal to all federal, state and local government web resources and services.